Location: Unspecified
(0.0000°N, 0.0000°E)
Time: 14:47:46
(UTC+00:00)

Vanguard 2 Rocket - All Passes

Search period start: 20 July 2017 00:00
Search period end: 30 July 2017 00:00
Orbit: 553 x 3329 km, 32.9° (Epoch: 19 July)

Date Brightness Start Highest point End Pass type
(mag) Time Alt. Az. Time Alt. Az. Time Alt. Az.
20 Jul - 08:41:23 10° S 08:46:53 20° SE 08:54:36 10° E daylight
20 Jul - 10:51:27 10° SW 11:01:15 77° SE 11:18:32 10° ENE daylight
20 Jul - 13:06:02 10° W 13:18:57 46° NNW 13:37:33 10° NE daylight
20 Jul - 15:27:19 10° WNW 15:40:50 23° NNW 15:55:15 10° NNE daylight
20 Jul - 17:54:04 10° NW 18:05:34 18° N 18:15:22 10° NE daylight
20 Jul - 20:14:49 10° NNW 20:27:32 27° NNE 20:36:05 10° ENE visible
20 Jul - 22:32:33 10° NW 22:44:46 67° NNE 22:51:27 10° ESE visible
21 Jul - 00:52:13 10° W 00:58:02 22° SW 01:02:10 10° S night (unlit)
21 Jul - 09:52:48 10° SW 10:00:59 53° SE 10:15:21 10° ENE daylight
21 Jul - 12:05:43 10° WSW 12:17:05 58° NNW 12:35:28 10° NE daylight
21 Jul - 14:24:11 10° WNW 14:37:28 28° NNW 14:53:28 10° NNE daylight
21 Jul - 16:49:41 10° NW 17:01:47 18° N 17:13:02 10° NE daylight
21 Jul - 19:12:25 10° NNW 19:25:26 23° NNE 19:35:01 10° ENE visible
21 Jul - 21:30:37 10° NW 21:44:23 49° NNE 21:52:15 10° E visible
21 Jul - 23:49:30 10° WNW 23:58:55 45° SW 00:04:30 10° SSE visible
22 Jul - 08:54:43 10° SSW 09:01:14 32° SE 09:11:44 10° E daylight
22 Jul - 11:06:08 10° WSW 11:15:52 76° NW 11:33:06 10° NE daylight
22 Jul - 13:22:17 10° W 13:34:38 34° NNW 13:51:31 10° NE daylight
22 Jul - 15:45:25 10° NW 15:57:48 20° N 16:10:34 10° NNE daylight
22 Jul - 18:09:35 10° NNW 18:22:36 21° N 18:33:07 10° NE visible
22 Jul - 20:28:34 10° NW 20:43:20 38° NNE 20:52:28 10° E visible
22 Jul - 22:47:05 10° WNW 22:59:28 76° SW 23:06:12 10° SE visible
23 Jul - 01:10:23 10° WSW 01:12:26 11° SW 01:14:16 10° SSW night (unlit)
23 Jul - 07:57:35 10° S 08:01:46 17° SE 08:07:19 10° ESE daylight
23 Jul - 10:07:07 10° SW 10:15:22 80° SE 10:30:29 10° ENE daylight
23 Jul - 12:21:23 10° W 12:32:27 41° NNW 12:49:25 10° NE daylight
23 Jul - 14:41:51 10° WNW 14:54:04 22° NNW 15:08:04 10° NNE daylight
23 Jul - 17:06:24 10° NNW 17:19:05 19° N 17:30:26 10° NE daylight
23 Jul - 19:26:23 10° NW 19:41:37 31° NNE 19:52:00 10° E visible
23 Jul - 21:44:45 10° NW 21:59:26 75° NNE 22:07:26 10° ESE visible
24 Jul - 00:05:36 10° W 00:13:11 25° SW 00:18:14 10° SSE visible
24 Jul - 09:08:38 10° SW 09:15:29 52° SE 09:27:38 10° ENE daylight
24 Jul - 11:21:19 10° WSW 11:30:55 52° NNW 11:47:14 10° NE daylight
24 Jul - 13:39:17 10° WNW 13:50:49 25° NNW 14:05:39 10° NNE daylight
24 Jul - 16:03:00 10° NW 16:15:08 19° N 16:27:08 10° NE daylight
24 Jul - 18:24:06 10° NNW 18:39:11 27° NNE 18:50:40 10° ENE visible
24 Jul - 20:42:28 10° NW 20:58:44 56° NNE 21:08:07 10° ESE visible
24 Jul - 23:02:19 10° WNW 23:13:50 46° SW 23:20:28 10° SSE visible
25 Jul - 08:10:42 10° SSW 08:16:06 29° SE 08:24:30 10° E daylight
25 Jul - 10:21:53 10° WSW 10:30:04 69° NNW 10:44:59 10° NE daylight
25 Jul - 12:37:45 10° WNW 12:48:15 30° NNW 13:03:18 10° NE daylight
25 Jul - 14:59:44 10° NW 15:11:08 19° N 15:23:40 10° NE daylight
25 Jul - 17:21:44 10° NNW 17:36:05 23° NNE 17:48:18 10° ENE daylight
25 Jul - 19:40:16 10° NW 19:57:20 44° NNE 20:08:12 10° E visible
25 Jul - 21:59:22 10° WNW 22:14:04 73° SW 22:22:05 10° SE visible
26 Jul - 00:23:18 10° WSW 00:27:34 14° SW 00:31:00 10° S night (unlit)
26 Jul - 07:13:56 10° SSE 07:16:53 14° SE 07:20:29 10° ESE daylight
26 Jul - 09:23:01 10° SW 09:29:55 84° SE 09:42:43 10° NE daylight
26 Jul - 11:37:06 10° W 11:46:24 36° NNW 12:01:06 10° NE daylight
26 Jul - 13:56:56 10° NW 14:07:32 20° N 14:20:20 10° NNE daylight
26 Jul - 16:19:20 10° NNW 16:32:25 20° N 16:44:54 10° NE daylight
26 Jul - 18:38:09 10° NW 18:55:16 36° NNE 19:07:30 10° E visible
26 Jul - 20:56:41 10° NW 21:13:41 81° NE 21:23:12 10° ESE visible
26 Jul - 23:18:28 10° W 23:28:05 28° SW 23:34:16 10° SSE visible
27 Jul - 08:24:36 10° SW 08:30:22 51° SE 08:40:21 10° ENE daylight
27 Jul - 10:37:12 10° W 10:45:13 45° NNW 10:59:03 10° NE daylight
27 Jul - 12:54:53 10° WNW 13:04:32 22° NNW 13:17:23 10° NNE daylight
27 Jul - 15:16:56 10° NNW 15:28:28 18° N 15:40:40 10° NE daylight
27 Jul - 17:36:13 10° NNW 17:52:34 29° NNE 18:05:49 10° ENE daylight
27 Jul - 19:54:15 10° NW 20:12:36 62° NNE 20:23:45 10° ESE visible
27 Jul - 22:14:40 10° WNW 22:28:24 48° SW 22:36:20 10° SSE visible
28 Jul - 07:26:46 10° SSW 07:31:13 27° SE 07:37:48 10° E daylight
28 Jul - 09:37:52 10° WSW 09:44:42 61° NNW 09:57:08 10° NE daylight
28 Jul - 11:53:38 10° WNW 12:02:18 25° NNW 12:14:52 10° NNE daylight
28 Jul - 14:14:38 10° NW 14:24:38 17° N 14:36:10 10° NE daylight
28 Jul - 16:34:26 10° NNW 16:49:18 24° NNE 17:02:57 10° ENE daylight
28 Jul - 18:52:06 10° NW 19:10:51 49° NNE 19:23:36 10° E visible
28 Jul - 21:11:22 10° WNW 21:28:14 71° SW 21:37:48 10° SE visible
28 Jul - 23:35:59 10° WSW 23:42:30 17° SW 23:47:22 10° S visible
29 Jul - 06:30:26 10° SSE 06:32:08 11° SE 06:34:02 10° ESE daylight
29 Jul - 08:39:01 10° SW 08:44:51 90° SE 08:55:20 10° NE daylight
29 Jul - 10:53:10 10° W 11:00:47 30° NNW 11:12:47 10° NE daylight
29 Jul - 13:12:36 10° NW 13:21:17 17° N 13:32:04 10° NNE daylight
29 Jul - 15:32:52 10° NNW 15:45:39 21° NNE 15:58:47 10° NE daylight
29 Jul - 17:50:17 10° NW 18:08:30 39° NNE 18:22:35 10° E daylight
29 Jul - 20:08:32 10° NW 20:27:27 85° NE 20:38:43 10° ESE visible
29 Jul - 22:30:53 10° W 22:42:40 31° SW 22:50:10 10° SSE visible
